Flag for Australia Weather past 2 weeks in The Settlement, Christmas Island, Australia

Now
81 °F

Scattered clouds.


Feels Like: 84 °F
Forecast: 72 / 81 °F
Wind: 10 mph from East

Location: Christmas Island Aerodrome

Current Time: May 23, 2015 at 2:36:54 PM

Latest Report: May 23, 2015 at 2:00 PM


Visibility: N/A

Pressure: 29.92 "Hg

Humidity: 70%

Dew point: 70 °F

Location of The SettlementLocation

Historic Weather in The Settlement — Graph

°F

The Settlement temperature yesterday

Maximum temperature yesterday: 82 °F (at 1:00 PM)
Minimum temperature yesterday: 77 °F (at 12:00 AM)
Average temperature yesterday: 78 °F

Past Weeks' High & Low Weather Summary

 TemperatureHumidityPressure
High82 °F (May 8, 12:00 PM)94% (May 11, 10:00 AM)30.01 "Hg (May 11, 10:00 AM)
Low75 °F (May 19, 7:00 AM)66% (May 17, 12:00 PM)29.86 "Hg (May 8, 3:00 PM)
Average79 °F82%29.94 "Hg
* Reported May 8 12:00 Noon — May 23 12:00 Noon, The Settlement, Weather by CustomWeather, © 2015

Note: Actual official high and low records may vary slightly from our data, if they occured in-between our weather recording intervals... More about our weather records

Advertising

The Settlement weather history for previous 24 hours

 ConditionsComfort  
Time TempWeatherWind HumidityBarometerVisibility
12:00 PM
Sat, May 23
81 °FScattered clouds.12 mph70%29.95 "HgN/A
11:00 AM81 °FPartly sunny.13 mph74%29.95 "HgN/A
10:00 AM81 °FScattered clouds.10 mph70%29.98 "HgN/A
9:00 AM81 °FSunny.10 mph70%29.98 "HgN/A
8:00 AM79 °FSunny.10 mph74%29.98 "HgN/A
7:00 AM77 °FSunny.9 mph74%29.95 "HgN/A
6:00 AM75 °FPassing clouds.8 mph83%29.95 "HgN/A
5:00 AM75 °FPassing clouds.8 mph83%29.95 "HgN/A
4:00 AM75 °FClear.9 mph78%29.95 "HgN/A
3:00 AM75 °FPassing clouds.9 mph83%29.95 "HgN/A
2:00 AM77 °FPassing clouds.9 mph79%29.95 "HgN/A
1:00 AM77 °FPassing clouds.9 mph79%29.98 "HgN/A
12:00 AM77 °FPassing clouds.8 mph83%29.98 "HgN/A
11:00 PM
Fri, May 22
77 °FPassing clouds.9 mph79%29.98 "HgN/A
10:00 PM77 °FPassing clouds.8 mph79%29.98 "HgN/A
9:00 PM77 °FPassing clouds.8 mph79%29.98 "HgN/A
8:00 PM77 °FPassing clouds.7 mph83%29.98 "HgN/A
7:00 PM77 °FPassing clouds.7 mph79%29.95 "HgN/A
6:00 PM77 °FPassing clouds.8 mph83%29.95 "HgN/A
5:00 PM79 °FBroken clouds.10 mph79%29.92 "HgN/A
4:00 PM81 °FPartly sunny.10 mph74%29.92 "HgN/A
3:00 PM81 °FScattered clouds.12 mph70%29.92 "HgN/A
2:00 PM81 °FBroken clouds.10 mph74%29.95 "HgN/A
Weather by CustomWeather, © 2015

See weather overviewHow to use our weather pages